When you browse on this site, cookies collect data to enhance your experience and personalize the content and advertising you see.
Visit our Privacy Policy to learn more. By continuing to use the site, you agree to this use of cookies and data.
  • In Österreich
  • Länderverzeichnis
  • Für 7 Tage
  • Wassertemperatur
  • Satellitenkarten
  • Wetterkarte
  • News
  • Widgets
  • user-avatar
    Anmelden

    Stündliche Wetter Brisbane

    Heute, 20 Juli, Samstag

    Zeit Temperatur Niederschläge Wind Luftdruck Luftfeuchtigkeit
    00:00 +13°C° 0 mm 1 m/S 764 mmHg 69%
    01:00 +12°C° 0 mm 1 m/S 764 mmHg 69%
    02:00 +12°C° 0 mm 1 m/S 765 mmHg 69%
    03:00 +11°C° 0 mm 1 m/S 765 mmHg 68%
    04:00 +10°C° 0 mm 2 m/S 765 mmHg 64%
    05:00 +10°C° 0 mm 2 m/S 765 mmHg 64%
    06:00 +9°C° 0 mm 2 m/S 765 mmHg 64%
    07:00 +10°C° 0 mm 1 m/S 765 mmHg 64%
    08:00 +13°C° 0 mm 1 m/S 766 mmHg 58%
    09:00 +16°C° 0 mm 1 m/S 766 mmHg 52%
    10:00 +18°C° 0 mm 2 m/S 766 mmHg 45%
    11:00 +21°C° 0 mm 1 m/S 765 mmHg 44%
    12:00 +22°C° 0 mm 1 m/S 765 mmHg 43%
    13:00 +23°C° 0 mm 1 m/S 764 mmHg 41%
    14:00 +23°C° 0 mm 1 m/S 764 mmHg 45%
    15:00 +21°C° 0 mm 2 m/S 764 mmHg 48%
    16:00 +21°C° 0 mm 2 m/S 764 mmHg 50%
    17:00 +19°C° 0 mm 2 m/S 764 mmHg 58%
    18:00 +19°C° 0 mm 1 m/S 764 mmHg 66%
    19:00 +16°C° 0 mm 1 m/S 765 mmHg 74%
    20:00 +16°C° 0 mm 1 m/S 765 mmHg 76%
    21:00 +15°C° 0 mm 1 m/S 765 mmHg 79%
    22:00 +15°C° 0 mm 1 m/S 765 mmHg 81%
    23:00 +14°C° 0 mm 1 m/S 765 mmHg 82%

    Morgen, 21 Juli, Sonntag

    Zeit Temperatur Niederschläge Wind Luftdruck Luftfeuchtigkeit
    00:00 +14°C° 0 mm 1 m/S 765 mmHg 84%
    01:00 +13°C° 0 mm 1 m/S 765 mmHg 85%
    02:00 +13°C° 0 mm 1 m/S 765 mmHg 86%
    03:00 +13°C° 0 mm 1 m/S 765 mmHg 86%
    04:00 +12°C° 0 mm 1 m/S 765 mmHg 87%
    05:00 +12°C° 0 mm 1 m/S 765 mmHg 87%
    06:00 +12°C° 0 mm 1 m/S 765 mmHg 87%
    07:00 +12°C° 0 mm 1 m/S 765 mmHg 87%
    08:00 +14°C° 0 mm 1 m/S 765 mmHg 76%
    09:00 +18°C° 0 mm 1 m/S 765 mmHg 65%
    10:00 +20°C° 0 mm 1 m/S 765 mmHg 54%
    11:00 +21°C° 0 mm 1 m/S 764 mmHg 49%
    12:00 +23°C° 0 mm 1 m/S 763 mmHg 44%
    13:00 +24°C° 0 mm 1 m/S 762 mmHg 38%
    14:00 +23°C° 0 mm 2 m/S 762 mmHg 42%
    15:00 +21°C° 0 mm 3 m/S 762 mmHg 46%
    16:00 +20°C° 0 mm 3 m/S 761 mmHg 50%
    17:00 +19°C° 0 mm 3 m/S 762 mmHg 57%
    18:00 +17°C° 0 mm 2 m/S 762 mmHg 64%
    19:00 +16°C° 0 mm 2 m/S 763 mmHg 71%
    20:00 +15°C° 0 mm 2 m/S 763 mmHg 73%
    21:00 +15°C° 0 mm 2 m/S 763 mmHg 76%
    22:00 +14°C° 0 mm 2 m/S 764 mmHg 78%
    23:00 +14°C° 0 mm 2 m/S 764 mmHg 80%

    übermorgen, 22 Juli, Montag

    Zeit Temperatur Niederschläge Wind Luftdruck Luftfeuchtigkeit
    00:00 +13°C° 0 mm 1 m/S 763 mmHg 81%
    01:00 +13°C° 0 mm 1 m/S 763 mmHg 83%
    02:00 +13°C° 0 mm 1 m/S 763 mmHg 83%
    03:00 +12°C° 0 mm 1 m/S 763 mmHg 84%
    04:00 +12°C° 0 mm 1 m/S 763 mmHg 84%
    05:00 +12°C° 0 mm 1 m/S 763 mmHg 84%
    06:00 +12°C° 0 mm 1 m/S 763 mmHg 85%
    07:00 +12°C° 0 mm 1 m/S 764 mmHg 85%
    08:00 +14°C° 0 mm 1 m/S 764 mmHg 76%
    09:00 +18°C° 0 mm 1 m/S 764 mmHg 66%
    10:00 +20°C° 0 mm 1 m/S 764 mmHg 56%
    11:00 +21°C° 0 mm 1 m/S 763 mmHg 52%
    12:00 +23°C° 0 mm 1 m/S 762 mmHg 47%
    13:00 +24°C° 0 mm 1 m/S 761 mmHg 42%
    14:00 +23°C° 0 mm 1 m/S 761 mmHg 45%
    15:00 +23°C° 0 mm 2 m/S 761 mmHg 47%
    16:00 +21°C° 0 mm 2 m/S 761 mmHg 49%
    17:00 +20°C° 0 mm 2 m/S 761 mmHg 55%
    18:00 +18°C° 0 mm 2 m/S 762 mmHg 61%
    19:00 +17°C° 0 mm 2 m/S 762 mmHg 68%
    20:00 +17°C° 0 mm 2 m/S 762 mmHg 69%
    21:00 +16°C° 0 mm 2 m/S 763 mmHg 70%
    22:00 +16°C° 0 mm 1 m/S 763 mmHg 71%
    23:00 +16°C° 0 mm 1 m/S 763 mmHg 71%

    23 Juli, Dienstag

    Zeit Temperatur Niederschläge Wind Luftdruck Luftfeuchtigkeit
    00:00 +16°C° 0 mm 1 m/S 763 mmHg 71%
    01:00 +16°C° 0 mm 1 m/S 763 mmHg 71%
    02:00 +15°C° 0 mm 1 m/S 763 mmHg 75%
    03:00 +14°C° 0 mm 1 m/S 763 mmHg 78%
    04:00 +14°C° 0 mm 1 m/S 763 mmHg 82%
    05:00 +13°C° 0 mm 2 m/S 763 mmHg 82%
    06:00 +13°C° 0 mm 2 m/S 763 mmHg 83%
    07:00 +13°C° 0 mm 2 m/S 764 mmHg 84%
    08:00 +16°C° 0 mm 2 m/S 764 mmHg 74%
    09:00 +18°C° 0 mm 2 m/S 764 mmHg 64%
    10:00 +21°C° 0 mm 2 m/S 764 mmHg 53%
    11:00 +23°C° 0 mm 2 m/S 764 mmHg 48%
    12:00 +24°C° 0 mm 2 m/S 763 mmHg 43%
    13:00 +26°C° 0 mm 2 m/S 762 mmHg 37%
    14:00 +25°C° 0 mm 2 m/S 762 mmHg 38%
    15:00 +25°C° 0 mm 2 m/S 762 mmHg 39%
    16:00 +25°C° 0 mm 2 m/S 762 mmHg 41%
    17:00 +23°C° 0 mm 2 m/S 762 mmHg 46%
    18:00 +20°C° 0 mm 2 m/S 763 mmHg 52%
    19:00 +18°C° 0 mm 2 m/S 763 mmHg 57%
    20:00 +18°C° 0 mm 2 m/S 763 mmHg 59%
    21:00 +18°C° 0 mm 1 m/S 764 mmHg 60%
    22:00 +16°C° 0 mm 1 m/S 764 mmHg 61%
    23:00 +16°C° 0 mm 1 m/S 764 mmHg 63%

    24 Juli, Mittwoch

    Zeit Temperatur Niederschläge Wind Luftdruck Luftfeuchtigkeit
    00:00 +15°C° 0 mm 1 m/S 764 mmHg 64%
    01:00 +15°C° 0 mm 1 m/S 764 mmHg 65%
    02:00 +14°C° 0 mm 1 m/S 764 mmHg 66%
    03:00 +14°C° 0 mm 2 m/S 763 mmHg 68%
    04:00 +13°C° 0 mm 2 m/S 763 mmHg 69%
    05:00 +13°C° 0 mm 2 m/S 764 mmHg 69%
    06:00 +13°C° 0 mm 2 m/S 764 mmHg 69%
    07:00 +13°C° 0 mm 2 m/S 764 mmHg 69%
    08:00 +15°C° 0 mm 2 m/S 764 mmHg 59%
    09:00 +18°C° 0 mm 2 m/S 765 mmHg 49%
    10:00 +20°C° 0 mm 3 m/S 765 mmHg 38%
    11:00 +21°C° 0 mm 2 m/S 764 mmHg 34%
    12:00 +24°C° 0 mm 2 m/S 763 mmHg 29%
    13:00 +25°C° 0 mm 2 m/S 763 mmHg 25%
    14:00 +25°C° 0 mm 2 m/S 762 mmHg 26%
    15:00 +25°C° 0 mm 2 m/S 762 mmHg 28%
    16:00 +24°C° 0 mm 2 m/S 762 mmHg 29%
    17:00 +21°C° 0 mm 2 m/S 762 mmHg 32%
    18:00 +19°C° 0 mm 3 m/S 763 mmHg 36%
    19:00 +18°C° 0 mm 3 m/S 763 mmHg 39%
    20:00 +17°C° 0 mm 3 m/S 764 mmHg 42%
    21:00 +16°C° 0 mm 3 m/S 764 mmHg 45%
    22:00 +14°C° 0 mm 3 m/S 764 mmHg 49%
    23:00 +13°C° 0 mm 3 m/S 764 mmHg 51%

    25 Juli, Donnerstag

    Zeit Temperatur Niederschläge Wind Luftdruck Luftfeuchtigkeit
    00:00 +13°C° 0 mm 3 m/S 764 mmHg 54%
    01:00 +12°C° 0 mm 3 m/S 764 mmHg 56%
    02:00 +12°C° 0 mm 3 m/S 764 mmHg 58%
    03:00 +12°C° 0 mm 2 m/S 764 mmHg 60%
    04:00 +12°C° 0 mm 2 m/S 763 mmHg 62%
    05:00 +10°C° 0 mm 2 m/S 764 mmHg 63%
    06:00 +10°C° 0 mm 2 m/S 764 mmHg 64%
    07:00 +10°C° 0 mm 2 m/S 765 mmHg 65%
    08:00 +14°C° 0 mm 2 m/S 765 mmHg 59%
    09:00 +16°C° 0 mm 2 m/S 765 mmHg 54%
    10:00 +19°C° 0 mm 2 m/S 765 mmHg 48%
    11:00 +20°C° 0 mm 2 m/S 764 mmHg 48%
    12:00 +21°C° 0 mm 2 m/S 763 mmHg 47%
    13:00 +23°C° 0 mm 2 m/S 763 mmHg 47%
    14:00 +23°C° 0 mm 2 m/S 762 mmHg 51%
    15:00 +21°C° 0 mm 3 m/S 762 mmHg 55%
    16:00 +20°C° 0 mm 3 m/S 762 mmHg 58%
    17:00 +19°C° 0 mm 3 m/S 763 mmHg 65%
    18:00 +18°C° 0 mm 3 m/S 763 mmHg 72%
    19:00 +17°C° 0 mm 2 m/S 764 mmHg 79%
    20:00 +17°C° 0 mm 2 m/S 764 mmHg 81%
    21:00 +16°C° 0 mm 1 m/S 764 mmHg 83%
    22:00 +16°C° 0 mm 1 m/S 764 mmHg 84%
    23:00 +16°C° 0 mm 1 m/S 764 mmHg 85%
    Mehr zeigen